Newberry, MI

4:04 PM EDT on September 19, 2017 (GMT -0400)
Luce County

Weather History for KERY - June, 2013

Change the Weather History Date:

Sunday, June 2, 2013

  Actual Average Record
Temperature  
Mean Temperature 45 °F -  
Max Temperature 55 °F 67 °F 88 °F (1919)
Min Temperature 35 °F 42 °F 27 °F (1964)
Degree Days  
Heating Degree Days 20    
Moisture  
Dew Point 40 °F    
Average Humidity 86    
Maximum Humidity 100    
Minimum Humidity 66    
Precipitation  
Precipitation 0.00 in - - ()
Sea Level Pressure  
Sea Level Pressure 29.83 in    
Wind  
Wind Speed 11 mph (WNW)    
Max Wind Speed 18 mph    
Max Gust Speed 30 mph    
Visibility 7 miles    
Events Rain    
Averages and records for this station are not official NWS values.
T = Trace of Precipitation, MM = Missing Value Source: NWS Daily Summary

Daily Weather History Graph

Daily Weather History Graph

Search for Another Location

Airport or City:

Trip Planner

Search our weather history database for the weather conditions in past years. The results will help you decide how hot, cold, wet, or windy it might be!

Date:

Astronomy

Jun. 02, 2013 Rise Set
Actual Time 5:52 AM EDT 9:27 PM EDT
Civil Twilight 5:14 AM EDT 10:05 PM EDT
Nautical Twilight 4:24 AM EDT 10:56 PM EDT
Astronomical Twilight 3:17 AM EDT 12:03 AM EDT
Moon 2:38 AM EDT (6/2) 3:40 PM EDT (6/2)
Length of Visible Light 16h 50m
Length of Day
15h 34m
Waning Crescent, 31% of the Moon is Illuminated
Jun 2
Waning Crescent
Jun 8
New
Jun 16
First Quarter
Jun 23
Full
Jun 30
Last Quarter

Hourly Weather History & Observations

Time (EDT) Temp. Windchill Dew Point Humidity Pressure Visibility Wind Dir Wind Speed Gust Speed Precip Events Conditions
12:14 AM 55.4 °F - 55.4 °F 100% 29.66 in 7.0 mi SW 6.9 mph - N/A   Overcast
12:34 AM 55.4 °F - 55.4 °F 100% 29.66 in 3.0 mi West 8.1 mph 16.1 mph N/A   Overcast
12:55 AM 53.6 °F - 53.6 °F 100% 29.66 in 5.0 mi NW 5.8 mph - N/A   Overcast
1:14 AM 53.6 °F - 51.8 °F 94% 29.66 in 5.0 mi WNW 4.6 mph - N/A   Overcast
1:35 AM 50.0 °F - 48.2 °F 94% 29.66 in 3.0 mi West 8.1 mph - N/A Rain Light Rain
1:55 AM 46.4 °F 40.7 °F 46.4 °F 100% 29.66 in 7.0 mi West 12.7 mph - N/A Rain Light Rain
2:14 AM 46.4 °F 41.5 °F 44.6 °F 93% 29.67 in 7.0 mi West 10.4 mph - N/A Rain Light Rain
2:35 AM 44.6 °F 39.7 °F 44.6 °F 100% 29.67 in 5.0 mi West 9.2 mph - N/A   Overcast
2:55 AM 44.6 °F 39.2 °F 42.8 °F 93% 29.67 in 7.0 mi West 10.4 mph - N/A Rain Rain
3:14 AM 42.8 °F 39.3 °F 42.8 °F 100% 29.66 in 5.0 mi WNW 5.8 mph - N/A   Overcast
3:35 AM 44.6 °F 39.7 °F 42.8 °F 93% 29.66 in 7.0 mi WNW 9.2 mph - N/A   Overcast
3:55 AM 44.6 °F 40.7 °F 42.8 °F 93% 29.66 in 7.0 mi WNW 6.9 mph - N/A   Overcast
4:14 AM 42.8 °F 38.0 °F 42.8 °F 100% 29.66 in 7.0 mi NW 8.1 mph - N/A Rain Light Rain
4:35 AM 42.8 °F 38.0 °F 41.0 °F 93% 29.66 in 10.0 mi WNW 8.1 mph 17.3 mph N/A Rain Rain
4:54 AM 42.8 °F 36.2 °F 41.0 °F 93% 29.67 in 7.0 mi NW 12.7 mph 23.0 mph N/A Rain Light Rain
5:15 AM 42.8 °F 34.5 °F 41.0 °F 93% 29.67 in 3.0 mi NW 18.4 mph 26.5 mph N/A Rain Light Rain
5:35 AM 42.8 °F 36.6 °F 41.0 °F 93% 29.68 in 2.5 mi NW 11.5 mph 19.6 mph N/A Rain Light Rain
5:54 AM 42.8 °F 37.0 °F 41.0 °F 93% 29.68 in 4.0 mi NW 10.4 mph 23.0 mph N/A Rain Light Rain
6:15 AM 42.8 °F 35.8 °F 41.0 °F 93% 29.69 in 5.0 mi NW 13.8 mph 24.2 mph N/A Rain Light Rain
6:34 AM 42.8 °F 36.6 °F 41.0 °F 93% 29.69 in 4.0 mi NNW 11.5 mph 25.3 mph N/A Rain Light Rain
6:54 AM 42.8 °F 35.8 °F 41.0 °F 93% 29.70 in 1.8 mi NW 13.8 mph 23.0 mph N/A   Overcast
7:15 AM 42.8 °F 35.8 °F 41.0 °F 93% 29.71 in 1.5 mi NW 13.8 mph 25.3 mph N/A   Overcast
7:34 AM 42.8 °F 35.8 °F 41.0 °F 93% 29.71 in 1.2 mi NW 13.8 mph 26.5 mph N/A   Overcast
7:55 AM 42.8 °F 35.8 °F 39.2 °F 87% 29.72 in 1.2 mi NNW 13.8 mph 25.3 mph N/A   Overcast
8:15 AM 42.8 °F 37.0 °F 39.2 °F 87% 29.73 in 1.2 mi NW 10.4 mph 18.4 mph N/A   Overcast
8:34 AM 42.8 °F 35.4 °F 39.2 °F 87% 29.73 in 1.5 mi NW 15.0 mph 24.2 mph N/A   Overcast
8:55 AM 42.8 °F 36.6 °F 39.2 °F 87% 29.75 in 1.5 mi NW 11.5 mph 20.7 mph N/A   Overcast
9:14 AM 42.8 °F 35.8 °F 39.2 °F 87% 29.76 in 2.0 mi NW 13.8 mph 24.2 mph N/A   Overcast
9:35 AM 42.8 °F 35.8 °F 39.2 °F 87% 29.77 in 2.5 mi NW 13.8 mph 24.2 mph N/A   Overcast
9:55 AM 41.0 °F 33.9 °F 39.2 °F 93% 29.78 in 3.0 mi NW 12.7 mph 21.9 mph N/A   Overcast
10:14 AM 41.0 °F 33.1 °F 39.2 °F 93% 29.79 in 4.0 mi NW 15.0 mph 24.2 mph N/A   Overcast
10:35 AM 41.0 °F 33.9 °F 39.2 °F 93% 29.80 in 3.0 mi NW 12.7 mph 25.3 mph N/A   Overcast
10:55 AM 41.0 °F 34.3 °F 39.2 °F 93% 29.81 in 1.8 mi NW 11.5 mph 24.2 mph N/A   Overcast
11:14 AM 41.0 °F 33.5 °F 39.2 °F 93% 29.82 in 2.5 mi NW 13.8 mph 21.9 mph N/A   Overcast
11:35 AM 42.8 °F 35.8 °F 39.2 °F 87% 29.83 in 7.0 mi NW 13.8 mph 21.9 mph N/A   Overcast
11:55 AM 42.8 °F 36.2 °F 39.2 °F 87% 29.84 in 3.0 mi WNW 12.7 mph 20.7 mph N/A   Overcast
12:14 PM 41.0 °F 32.8 °F 39.2 °F 93% 29.86 in 2.0 mi WNW 16.1 mph 21.9 mph N/A   Overcast
12:35 PM 41.0 °F 33.5 °F 39.2 °F 93% 29.87 in 10.0 mi NW 13.8 mph 21.9 mph N/A   Overcast
12:54 PM 42.8 °F 35.4 °F 39.2 °F 87% 29.88 in 10.0 mi NW 15.0 mph 19.6 mph N/A   Overcast
1:15 PM 42.8 °F 35.8 °F 39.2 °F 87% 29.88 in 10.0 mi NW 13.8 mph 27.6 mph N/A   Overcast
1:35 PM 42.8 °F 34.8 °F 39.2 °F 87% 29.89 in 10.0 mi NW 17.3 mph 25.3 mph N/A   Overcast
1:54 PM 42.8 °F 34.8 °F 39.2 °F 87% 29.89 in 10.0 mi NNW 17.3 mph 29.9 mph N/A   Overcast
2:15 PM 44.6 °F 37.8 °F 39.2 °F 81% 29.89 in 10.0 mi NW 15.0 mph 27.6 mph N/A   Overcast
2:35 PM 44.6 °F 37.8 °F 39.2 °F 81% 29.90 in 10.0 mi NW 15.0 mph 28.8 mph N/A   Overcast
2:54 PM 44.6 °F 36.9 °F 39.2 °F 81% 29.90 in 10.0 mi NNW 18.4 mph 27.6 mph N/A   Overcast
3:15 PM 44.6 °F 37.8 °F 39.2 °F 81% 29.92 in 10.0 mi NW 15.0 mph 29.9 mph N/A   Overcast
3:35 PM 44.6 °F 38.1 °F 37.4 °F 76% 29.93 in 10.0 mi NW 13.8 mph 26.5 mph N/A   Overcast
3:54 PM 44.6 °F 37.4 °F 37.4 °F 76% 29.94 in 10.0 mi NW 16.1 mph 27.6 mph N/A   Overcast
4:15 PM 44.6 °F 37.2 °F 37.4 °F 76% 29.95 in 10.0 mi NW 17.3 mph 25.3 mph N/A   Overcast
4:34 PM 44.6 °F 36.9 °F 37.4 °F 76% 29.95 in 10.0 mi NW 18.4 mph 25.3 mph N/A   Overcast
4:54 PM 46.4 °F 39.8 °F 37.4 °F 71% 29.96 in 10.0 mi WNW 16.1 mph 24.2 mph N/A   Overcast
5:15 PM 46.4 °F 40.4 °F 37.4 °F 71% 29.96 in 10.0 mi WNW 13.8 mph 18.4 mph N/A   Overcast
5:34 PM 44.6 °F 39.7 °F 35.6 °F 71% 29.97 in 10.0 mi NW 9.2 mph 21.9 mph N/A   Overcast
5:55 PM 44.6 °F 37.2 °F 35.6 °F 71% 29.97 in 10.0 mi WNW 17.3 mph 24.2 mph N/A   Mostly Cloudy
6:14 PM 44.6 °F 39.2 °F 35.6 °F 71% 29.97 in 10.0 mi WNW 10.4 mph 20.7 mph N/A   Scattered Clouds
6:34 PM 46.4 °F 40.1 °F 35.6 °F 66% 29.97 in 10.0 mi WNW 15.0 mph 21.9 mph N/A   Scattered Clouds
6:55 PM 46.4 °F 41.1 °F 35.6 °F 66% 29.97 in 10.0 mi WNW 11.5 mph 18.4 mph N/A   Scattered Clouds
7:14 PM 46.4 °F 41.1 °F 35.6 °F 66% 29.98 in 10.0 mi WNW 11.5 mph 21.9 mph N/A   Scattered Clouds
7:35 PM 46.4 °F 40.1 °F 35.6 °F 66% 29.98 in 10.0 mi WNW 15.0 mph 19.6 mph N/A   Scattered Clouds
7:55 PM 44.6 °F 40.2 °F 35.6 °F 71% 29.99 in 10.0 mi WNW 8.1 mph - N/A   Clear
8:14 PM 44.6 °F 39.7 °F 35.6 °F 71% 29.99 in 10.0 mi WNW 9.2 mph 18.4 mph N/A   Clear
8:35 PM 44.6 °F 39.7 °F 35.6 °F 71% 30.00 in 10.0 mi WNW 9.2 mph 16.1 mph N/A   Clear
8:54 PM 42.8 °F 37.0 °F 35.6 °F 76% 29.99 in 10.0 mi WNW 10.4 mph - N/A   Clear
9:15 PM 42.8 °F 39.3 °F 35.6 °F 76% 30.00 in 10.0 mi WNW 5.8 mph - N/A   Clear
9:35 PM 41.0 °F 36.4 °F 35.6 °F 81% 30.00 in 10.0 mi WNW 6.9 mph - N/A   Clear
9:54 PM 39.2 °F 34.2 °F 33.8 °F 81% 30.01 in 10.0 mi WNW 6.9 mph - N/A   Clear
10:15 PM 37.4 °F 33.8 °F 33.8 °F 87% 30.01 in 10.0 mi West 4.6 mph - N/A   Clear
10:34 PM 37.4 °F 33.8 °F 33.8 °F 87% 30.01 in 10.0 mi West 4.6 mph - N/A   Clear
10:54 PM 37.4 °F 31.4 °F 33.8 °F 87% 30.01 in 10.0 mi West 8.1 mph - N/A   Clear
11:15 PM 37.4 °F 32.1 °F 33.8 °F 87% 30.01 in 10.0 mi West 6.9 mph - N/A   Clear
11:34 PM 35.6 °F 29.9 °F 33.8 °F 93% 30.01 in 10.0 mi West 6.9 mph - N/A   Clear
11:54 PM 35.6 °F 29.9 °F 33.8 °F 93% 30.01 in 10.0 mi West 6.9 mph - N/A   Clear